This is the latest recevied weather packets stored in our database for station/object N7BTW-13. If no packets are shown the sender has not sent any weather packets the latest 10 day(s).
| Time | Temp. | Humidity | Pressure | Rain* | Wind** | Luminosity | Snow |
|---|---|---|---|---|---|---|---|
| 1777786810 | 13.89° C | 94% | 1012.9 hPa | 0 mm | - | - | - |
| 1777786209 | 14.44° C | 92% | 1013.2 hPa | 0 mm | - | - | - |
| 1777785608 | 14.44° C | 93% | 1013.4 hPa | 0 mm | - | - | - |
| 1777785007 | 15° C | 90% | 1013.3 hPa | 0 mm | - | - | - |
| 1777784408 | 15° C | 91% | 1013.2 hPa | 0 mm | - | - | - |
| 1777783805 | 15° C | 89% | 1013.2 hPa | 0 mm | - | - | - |
| 1777783208 | 15.56° C | 88% | 1013.3 hPa | 0 mm | - | - | - |
| 1777782606 | 16.11° C | 87% | 1013.5 hPa | 0 mm | - | - | - |
| 1777782008 | 16.11° C | 86% | 1013.4 hPa | 0 mm | - | - | - |
| 1777781407 | 16.67° C | 85% | 1013.3 hPa | 0 mm | - | - | - |
| 1777780807 | 16.67° C | 85% | 1013.3 hPa | 0 mm | - | - | - |
| 1777780207 | 17.22° C | 84% | 1013.2 hPa | 0 mm | - | - | - |
| 1777779607 | 17.22° C | 83% | 1012.9 hPa | 0 mm | - | - | - |
| 1777779007 | 17.78° C | 81% | 1013 hPa | 0 mm | - | - | - |
| 1777778407 | 18.33° C | 79% | 1012.9 hPa | 0 mm | - | - | - |
| 1777777806 | 18.89° C | 78% | 1013 hPa | 0 mm | - | - | - |
| 1777777207 | 18.89° C | 77% | 1013 hPa | 0 mm | - | - | - |
| 1777776608 | 19.44° C | 76% | 1012.8 hPa | 0 mm | - | - | - |
| 1777776006 | 20° C | 75% | 1012.7 hPa | 0 mm | - | - | - |
| 1777775407 | 20° C | 73% | 1012.7 hPa | 0 mm | - | - | - |
| 1777774809 | 20.56° C | 73% | 1012.7 hPa | 0 mm | - | - | - |
| 1777774207 | 20.56° C | 73% | 1012.2 hPa | 0 mm | - | - | - |
| 1777773606 | 20.56° C | 73% | 1012 hPa | 0 mm | - | - | - |
| 1777773007 | 20.56° C | 72% | 1011.9 hPa | 0 mm | - | - | - |
| 1777772407 | 21.11° C | 71% | 1011.9 hPa | 0 mm | - | - | - |
* Rain latest hour (hover to see other rain measurements)
** Current wind speed in m/s (hover to see current wind gust speed)